Miscellaneous Local Product
Issued by NWS North Platte, NE

Home | Current Version | Previous Version | Text Only | Print | Product List | Glossary On
Versions: 1 2 3 4 5 6 7 8 9 10 11 12 13 14 15 16 17 18 19 20 21 22 23 24 25 26 27 28 29 30 31 32 33 34 35 36 37 38 39 40 41 42 43 44 45 46 47 48 49 50
000
AXUS43 KLBF 250010
MISLBF


WESTERN AND NORTH CENTRAL NEBRASKA HOURLY WEATHER ROUNDUP
NATIONAL WEATHER SERVICE NORTH PLATTE NE
700 PM CDT TUE MAY 24 2016

NOTE: "FAIR" INDICATES FEW OR NO CLOUDS BELOW 12,000 FEET WITH NO
SIGNIFICANT WEATHER AND/OR OBSTRUCTIONS TO VISIBILITY.

NOTE: STATIONS NOT REPORTING VARIABLES SUCH AS SKY/WEATHER OR
PRESSURE ARE PROVIDED BY RAWS AND APRS NETWORKS AND ARE NOT UNDER
NATIONAL WEATHER SERVICE QUALITY CONTROL.

...OBSERVATIONS IN AND NEAR THE EASTERN PANHANDLE OF NEBRASKA...

CITY           SKY/WX    TMP DP  RH WIND       PRES   REMARKS
PINE RIDGE     CLOUDY    77  43  29 S17G26    29.75F
CHADRON        PTSUNNY   68  43  40 N13G25    29.80R
ALLIANCE       CLOUDY    71  49  45 S18G28    29.80F
SIDNEY         CLOUDY    69  53  56 S6        29.86R
BIG SPRINGS      N/A     77  57  50 SE16        N/A
$$

...OBSERVATIONS IN NORTHERN NEBRASKA AND FAR SOUTHERN SOUTH DAKOTA...

CITY           SKY/WX    TMP DP  RH WIND       PRES   REMARKS
WINNER         FAIR      81  51  35 E14       29.79F
VALENTINE      CLOUDY    80  47  31 SE17G24   29.79F
THEDFORD       SUNNY     78  48  34 SE14      29.83F
AINSWORTH      SUNNY     77  47  35 SE12      29.82F
O`NEILL        SUNNY     80  52  37 SE6       29.83F
ORD            SUNNY     79  54  41 SE12      29.82F
BROKEN BOW     MOSUNNY   79  56  45 SE12G18   29.83F
BUTTE            N/A     81  51  35 E10         N/A
CHAMBERS         N/A     85  55  35 E6          N/A
EWING            N/A     81  60  49 CALM        N/A
$$

...OBSERVATIONS IN SOUTHWEST NEBRASKA AND FAR NORTHEAST COLORADO...

CITY           SKY/WX    TMP DP  RH WIND       PRES   REMARKS
WRAY           FAIR      73  55  53 SE15G23   29.79F
HOLYOKE        FAIR      73  55  53 SE15G22   29.81F
IMPERIAL       CLOUDY    73  59  61 SE14      29.81F
OGALLALA       CLOUDY    74  55  52 SE14      29.81F
NORTH PLATTE   MOSUNNY   74  59  59 S12       29.81F
MCCOOK         MOSUNNY   75  60  59 SE15G22   29.79F
LEXINGTON      MOSUNNY   75  59  56 SE13      29.83F
PAXTON           N/A     78  59  52 SE13        N/A
STAPLETON        N/A     79  55  43 CALM        N/A
GOTHENBURG       N/A     78  56  46 S9          N/A
CALLAWAY         N/A     80  55  42 S15         N/A
$$

...OBSERVATIONS IN CENTRAL LINCOLN COUNTY AREA...

CITY           SKY/WX    TMP DP  RH WIND       PRES   REMARKS
N.P. AIRPORT   MOSUNNY   74  59  59 S12       29.81F
N.P. DOWNTOWN    N/A     76  60  57 S3          N/A
N.P. SOUTHEAST   N/A     75  60  58 S6G14       N/A
N.P. HILLCREST   N/A     74  60  61 SE12        N/A
$$

...SOME OBSERVATIONS FROM AROUND THE REGION...

CITY           SKY/WX    TMP DP  RH WIND       PRES   REMARKS
DENVER         PTSUNNY   67  50  54 E14G23    29.82F
LARAMIE        CLOUDY    63  28  26 S23       29.86F
CHEYENNE       CLOUDY    56  44  64 SE17G25   29.90R
SCOTTSBLUFF    TSTM      71  35  26 SE29G54   29.81R
RAPID CITY     LGT RAIN  61  50  67 W10       29.88R
BISMARCK       SUNNY     77  43  29 S12       29.84F
PIERRE         SUNNY     77  51  40 E6        29.78F
SIOUX FALLS    MOSUNNY   81  52  36 E6        29.84F
OMAHA          MOSUNNY   81  59  47 SE7       29.86S
GRAND ISLAND   MOSUNNY   77  61  57 SE9       29.84F
KANSAS CITY    MOSUNNY   78  66  66 S7        29.90S
WICHITA        MOSUNNY   81  69  67 SE17      29.79F
OKLAHOMA CITY  PTSUNNY   80  71  74 S14       29.87S
DALLAS         CLOUDY    85  71  63 S16       29.88F HX  90
AMARILLO       SUNNY     83  63  50 SE28      29.81F
DODGE CITY     TSTM      73  70  90 E24       29.71F FOG
HAYS           CLOUDY    75  63  64 E10       29.83R
GOODLAND       MOSUNNY   78  60  53 SE17G23   29.78F
$$




USA.gov is the U.S. government's official web portal to all federal, state and local government web resources and services.